{"data":{"norad_id":58717,"epoch":"2026-05-24T23:15:51.928992Z","epoch_age_seconds":67805,"freshness":"FRESH","line1":"1 58717U 24002N   26144.96935103 -.00002407  00000+0 -69169-4 0  9998","line2":"2 58717  53.1604 235.6676 0001097  94.0999 266.0127 15.30202023133695","mean_motion":15.30202023,"eccentricity":0.0001097,"inclination_deg":53.1604,"raan_deg":235.6676,"arg_perigee_deg":94.0999,"mean_anomaly_deg":266.0127,"bstar":-6.9169e-5,"rev_number":13369,"period_min":94.105221294692,"perigee_km":474.45721705323,"apogee_km":475.96084117202,"semimajor_km":6853.3460291126,"source":"CELESTRAK","updated_at":"2026-05-25T13:38:18.717213Z"}}